User: anonymous   Login
Location: Unspecified
(43.4680°N, 87.1740°E)
Time: 05:13:04
(UTC+00:00)
Language:

Gbstr 26 Del rocket - Orbit

View from above orbital plane
View from above orbital plane
View from above satellite
View from above satellite

Ground track
Ground track

The orbit data is extracted from the following two-line orbital elements,

1 25876U 99041E   21171.54112022 -.00000164  00000-0  12426-4 0  9991
2 25876  51.7665 297.1061 0530872 337.7992  20.0698 14.04577522120354
Epoch (UTC): 20 June 2021 12:59:12
Eccentricity: 0.0530872
inclination: 51.7665°
perigee height: 493 km
apogee height: 1263 km
right ascension of ascending node: 297.1061°
argument of perigee: 337.7992°
revolutions per day: 14.04577522
mean anomaly at epoch: 20.0698°
orbit number at epoch: 12035

The dashed part of the orbit path shows where the satellite is in the earth's shadow,  

DLR